Lincoln, NE

9:20 AM CST on November 20, 2019 (GMT -0600)
Lincoln Municipal

Weather History for KLNK - October, 2019

Change the Weather History Date:

Wednesday, October 23, 2019

  Actual Average Record
Temperature  
Mean Temperature 51 °F 50 °F  
Max Temperature 63 °F 63 °F 84 °F (1915)
Min Temperature 39 °F 38 °F 20 °F (1981)
Degree Days  
Heating Degree Days 14 15  
Month to date heating degree days 272 248  
Since 1 July heating degree days 280 346  
Cooling Degree Days 0 0  
Month to date cooling degree days 1 12  
Year to date cooling degree days 1332 1170  
Growing Degree Days 1 (Base 50)    
Moisture  
Dew Point 38 °F    
Average Humidity 64    
Maximum Humidity 92    
Minimum Humidity 36    
Precipitation  
Precipitation 0.01 in 0.06 in 1.18 in (1932)
Month to date precipitation 4.63 1.54  
Year to date precipitation 32.69 26.14  
Snow  
Snow 0.00 in 0.10 in 2.40 in (2002)
Month to date snowfall 0.0 0.4  
Since 1 July snowfall 0.0 0.4  
Since 1 September snowfall 0.0 0.4  
Snow Depth 0.00 in    
Sea Level Pressure  
Sea Level Pressure 29.99 in    
Wind  
Wind Speed 13 mph (North)    
Max Wind Speed 30 mph    
Max Gust Speed 37 mph    
Visibility 10 miles    
Events Rain    
T = Trace of Precipitation, MM = Missing Value Source: NWS Daily Summary

Daily Weather History Graph

Daily Weather History Graph

Search for Another Location

Airport or City:

Astronomy

Oct. 23, 2019 Rise Set
Actual Time 7:47 AM CDT 6:35 PM CDT
Civil Twilight 7:19 AM CDT 7:03 PM CDT
Nautical Twilight 6:47 AM CDT 7:35 PM CDT
Astronomical Twilight 6:15 AM CDT 8:06 PM CDT
Moon 2:04 AM CDT (10/23) 4:29 PM CDT (10/23)
Length of Visible Light 11h 44m
Length of Day
10h 48m
Waning Crescent, 26% of the Moon is Illuminated
Oct 23
Waning Crescent
Oct 27
New
Nov 4
First Quarter
Nov 12
Full
Nov 19
Last Quarter

Hourly Weather History & Observations

Time (CDT) Temp. Windchill Dew Point Humidity Pressure Visibility Wind Dir Wind Speed Gust Speed Precip Events Conditions
12:54 AM 48.0 °F - 32.0 °F 54% 29.88 in 10.0 mi SW 8.1 mph - N/A   Overcast
1:54 AM 51.1 °F - 39.0 °F 63% 29.83 in 10.0 mi Calm Calm - 0.01 in   Overcast
2:54 AM 50.0 °F - 39.9 °F 68% 29.84 in 10.0 mi SSW 9.2 mph - N/A   Overcast
3:54 AM 46.9 °F - 39.9 °F 77% 29.81 in 10.0 mi SE 5.8 mph - N/A   Partly Cloudy
4:54 AM 46.0 °F 44.8 °F 39.9 °F 79% 29.78 in 10.0 mi SE 3.5 mph - N/A   Mostly Cloudy
5:54 AM 46.0 °F 41.9 °F 39.0 °F 76% 29.78 in 10.0 mi ESE 8.1 mph - N/A   Scattered Clouds
6:54 AM 46.0 °F 43.9 °F 36.0 °F 68% 29.79 in 10.0 mi East 4.6 mph - N/A   Clear
7:54 AM 39.9 °F - 37.0 °F 89% 29.80 in 10.0 mi Calm Calm - N/A   Clear
8:54 AM 45.0 °F 42.6 °F 39.9 °F 82% 29.81 in 10.0 mi West 4.6 mph - N/A   Clear
10:54 AM 53.1 °F - 39.0 °F 59% 29.83 in 10.0 mi West 10.4 mph - N/A   Clear
11:54 AM 54.0 °F - 41.0 °F 62% 29.85 in 10.0 mi NW 16.1 mph 26.5 mph N/A   Scattered Clouds
12:54 PM 60.1 °F - 42.1 °F 51% 29.86 in 10.0 mi NW 21.9 mph 32.2 mph N/A   Scattered Clouds
1:54 PM 61.0 °F - 41.0 °F 48% 29.87 in 10.0 mi NNW 19.6 mph 38.0 mph N/A   Scattered Clouds
2:54 PM 62.1 °F - 36.0 °F 38% 29.88 in 10.0 mi NNW 24.2 mph 34.5 mph N/A   Partly Cloudy
3:54 PM 63.0 °F - 35.1 °F 35% 29.93 in 10.0 mi NNW 19.6 mph 28.8 mph N/A   Scattered Clouds
4:54 PM 59.0 °F - 35.1 °F 41% 29.96 in 10.0 mi NNW 13.8 mph - N/A   Partly Cloudy
5:54 PM 59.0 °F - 35.1 °F 41% 29.99 in 10.0 mi NNW 15.0 mph - N/A   Clear
6:54 PM 50.0 °F - 39.9 °F 68% 30.05 in 10.0 mi NNE 10.4 mph - N/A   Partly Cloudy
7:54 PM 46.0 °F 40.2 °F 39.0 °F 76% 30.13 in 10.0 mi NNE 12.7 mph - N/A   Clear
8:52 PM 46.4 °F 42.9 °F 39.2 °F 76% 30.17 in 10.0 mi NNE 6.9 mph - N/A   Overcast
8:54 PM 46.0 °F 43.1 °F 39.0 °F 76% 30.18 in 10.0 mi NNE 5.8 mph - N/A   Overcast
9:54 PM 45.0 °F 37.9 °F 37.9 °F 76% 30.24 in 10.0 mi NNE 16.1 mph - N/A   Overcast
10:14 PM 44.1 °F 36.8 °F 37.0 °F 76% 30.23 in 10.0 mi North 16.1 mph - N/A   Overcast
10:40 PM 43.0 °F 36.0 °F 39.0 °F 86% 30.26 in 5.0 mi North 13.8 mph - 0.00 in Rain Light Rain
10:47 PM 41.0 °F 30.9 °F 37.9 °F 89% 30.26 in 4.0 mi North 24.2 mph 32.2 mph 0.00 in Rain Light Rain
10:54 PM 41.0 °F 32.5 °F 37.0 °F 86% 30.28 in 5.0 mi North 17.3 mph - 0.00 in Rain Light Rain
11:11 PM 41.0 °F 32.5 °F 37.0 °F 86% 30.28 in 9.0 mi North 17.3 mph - 0.00 in Rain Light Rain
11:50 PM 39.2 °F 29.6 °F 35.6 °F 87% 30.29 in 10.0 mi North 19.6 mph - 0.00 in   Overcast
11:54 PM 39.0 °F 29.9 °F 35.1 °F 86% 30.31 in 10.0 mi North 17.3 mph - 0.00 in   Overcast